{"data":{"norad_id":60934,"epoch":"2026-05-25T04:48:46.380384Z","epoch_age_seconds":47817,"freshness":"FRESH","line1":"1 60934U 24155L   26145.20053681  .00002524  00000+0  25692-4 0  9992","line2":"2 60934  53.1574 323.7586 0001286  88.0217 272.0948 15.69706935100437","mean_motion":15.69706935,"eccentricity":0.0001286,"inclination_deg":53.1574,"raan_deg":323.7586,"arg_perigee_deg":88.0217,"mean_anomaly_deg":272.0948,"bstar":2.5692e-5,"rev_number":10043,"period_min":91.736869341155,"perigee_km":358.8690308846,"apogee_km":360.60201169707,"semimajor_km":6737.8725212908,"source":"CELESTRAK","updated_at":"2026-05-25T13:38:19.319205Z"}}